Time,TemperatureF,DewpointF,PressureIn,WindDirection,WindDirectionDegrees,WindSpeedMPH,WindSpeedGustMPH,Humidity,HourlyPrecipIn,Conditions,Clouds,dailyrainin,SoftwareType,DateUTC
2013-02-06 00:02:00,57.0,51.0,30.06,North,0,0.0,0.0,80,99.99,,,-99.99,,2013-02-06 05:02:00,
2013-02-06 00:12:00,57.0,51.0,30.06,North,0,0.0,0.0,80,99.99,,,-99.99,,2013-02-06 05:12:00,
2013-02-06 00:22:00,56.0,50.0,30.06,North,0,0.0,0.0,81,99.99,,,-99.99,,2013-02-06 05:22:00,
2013-02-06 00:32:00,55.0,50.0,30.06,North,0,0.0,0.0,83,99.99,,,-99.99,,2013-02-06 05:32:00,
2013-02-06 00:41:00,55.0,50.0,30.06,North,0,0.0,0.0,83,99.99,,,-99.99,,2013-02-06 05:41:00,
2013-02-06 00:53:00,55.0,51.0,30.05,North,0,0.0,0.0,85,99.99,,,-99.99,,2013-02-06 05:53:00,
2013-02-06 01:01:00,55.0,51.0,30.05,North,0,0.0,0.0,85,99.99,,,-99.99,,2013-02-06 06:01:00,
2013-02-06 01:11:00,55.0,51.0,30.05,North,0,0.0,0.0,85,99.99,,,-99.99,,2013-02-06 06:11:00,
2013-02-06 01:22:00,54.0,50.0,30.05,ESE,114,1.0,3.0,87,99.99,,,-99.99,,2013-02-06 06:22:00,
2013-02-06 01:32:00,54.0,51.0,30.04,North,0,0.0,0.0,88,99.99,,,-99.99,,2013-02-06 06:32:00,
2013-02-06 01:42:00,54.0,51.0,30.04,North,0,0.0,0.0,88,99.99,,,-99.99,,2013-02-06 06:42:00,
2013-02-06 01:52:00,54.0,51.0,30.04,North,0,0.0,0.0,89,99.99,,,-99.99,,2013-02-06 06:52:00,
2013-02-06 02:01:00,55.0,52.0,30.04,ESE,118,0.0,2.0,89,99.99,,,-99.99,,2013-02-06 07:01:00,
2013-02-06 02:11:00,55.0,52.0,30.04,ESE,118,0.0,2.0,89,99.99,,,-99.99,,2013-02-06 07:11:00,
2013-02-06 02:22:00,55.0,52.0,30.04,North,0,0.0,0.0,88,99.99,,,-99.99,,2013-02-06 07:22:00,
2013-02-06 02:32:00,55.0,52.0,30.03,North,0,0.0,0.0,89,99.99,,,-99.99,,2013-02-06 07:32:00,
2013-02-06 02:42:00,55.0,52.0,30.03,North,0,0.0,0.0,89,99.99,,,-99.99,,2013-02-06 07:42:00,
2013-02-06 02:52:00,54.0,51.0,30.03,North,0,0.0,0.0,89,99.99,,,-99.99,,2013-02-06 07:52:00,
2013-02-06 03:01:00,54.0,51.0,30.03,ESE,118,2.0,4.0,89,99.99,,,-99.99,,2013-02-06 08:01:00,
2013-02-06 03:11:00,54.0,51.0,30.03,ESE,118,2.0,4.0,89,99.99,,,-99.99,,2013-02-06 08:11:00,
2013-02-06 03:21:00,54.0,51.0,30.03,SE,141,1.0,3.0,90,99.99,,,-99.99,,2013-02-06 08:21:00,
2013-02-06 03:31:00,54.0,51.0,30.03,North,0,0.0,0.0,91,99.99,,,-99.99,,2013-02-06 08:31:00,
2013-02-06 03:42:00,54.0,51.0,30.03,North,0,0.0,0.0,91,99.99,,,-99.99,,2013-02-06 08:42:00,
2013-02-06 03:53:00,54.0,52.0,30.03,North,0,0.0,0.0,92,99.99,,,-99.99,,2013-02-06 08:53:00,
2013-02-06 04:01:00,53.0,51.0,30.04,North,0,0.0,0.0,92,99.99,,,-99.99,,2013-02-06 09:01:00,
2013-02-06 04:11:00,53.0,51.0,30.04,North,0,0.0,0.0,92,99.99,,,-99.99,,2013-02-06 09:11:00,
2013-02-06 04:21:00,53.0,51.0,30.04,North,0,0.0,0.0,93,99.99,,,-99.99,,2013-02-06 09:21:00,
2013-02-06 04:32:00,53.0,51.0,30.04,North,0,0.0,0.0,93,99.99,,,-99.99,,2013-02-06 09:32:00,
2013-02-06 04:42:00,53.0,51.0,30.04,North,0,0.0,0.0,93,99.99,,,-99.99,,2013-02-06 09:42:00,
2013-02-06 04:52:00,53.0,51.0,30.04,North,0,0.0,0.0,94,99.99,,,-99.99,,2013-02-06 09:52:00,
2013-02-06 05:01:00,53.0,52.0,30.04,North,0,0.0,0.0,95,99.99,,,-99.99,,2013-02-06 10:01:00,
2013-02-06 05:11:00,53.0,52.0,30.04,North,0,0.0,0.0,95,99.99,,,-99.99,,2013-02-06 10:11:00,
2013-02-06 05:21:00,52.0,51.0,30.04,North,0,0.0,0.0,95,99.99,,,-99.99,,2013-02-06 10:21:00,
2013-02-06 05:31:00,52.0,51.0,30.05,North,0,0.0,0.0,95,99.99,,,-99.99,,2013-02-06 10:31:00,
2013-02-06 05:42:00,52.0,51.0,30.05,North,0,0.0,0.0,95,99.99,,,-99.99,,2013-02-06 10:42:00,
2013-02-06 05:52:00,52.0,51.0,30.05,North,0,0.0,0.0,95,99.99,,,-99.99,,2013-02-06 10:52:00,
2013-02-06 06:01:00,52.0,51.0,30.05,North,0,0.0,0.0,96,99.99,,,-99.99,,2013-02-06 11:01:00,
2013-02-06 06:11:00,52.0,51.0,30.05,North,0,0.0,0.0,96,99.99,,,-99.99,,2013-02-06 11:11:00,
2013-02-06 06:22:00,51.0,50.0,30.06,North,0,0.0,0.0,96,99.99,,,-99.99,,2013-02-06 11:22:00,
2013-02-06 06:32:00,51.0,50.0,30.07,North,0,0.0,0.0,96,99.99,,,-99.99,,2013-02-06 11:32:00,
2013-02-06 06:42:00,51.0,50.0,30.07,North,0,0.0,0.0,96,99.99,,,-99.99,,2013-02-06 11:42:00,
2013-02-06 06:53:00,51.0,50.0,30.07,North,0,0.0,0.0,97,99.99,,,-99.99,,2013-02-06 11:53:00,
2013-02-06 07:02:00,51.0,50.0,30.07,East,101,1.0,3.0,98,99.99,,,-99.99,,2013-02-06 12:02:00,
2013-02-06 07:12:00,51.0,50.0,30.07,East,101,1.0,3.0,98,99.99,,,-99.99,,2013-02-06 12:12:00,
2013-02-06 07:22:00,51.0,50.0,30.08,North,0,0.0,0.0,98,99.99,,,-99.99,,2013-02-06 12:22:00,
2013-02-06 07:32:00,51.0,50.0,30.08,North,0,0.0,0.0,98,99.99,,,-99.99,,2013-02-06 12:32:00,
2013-02-06 07:42:00,51.0,50.0,30.08,North,0,0.0,0.0,98,99.99,,,-99.99,,2013-02-06 12:42:00,
2013-02-06 07:52:00,51.0,51.0,30.08,North,0,0.0,0.0,99,99.99,,,-99.99,,2013-02-06 12:52:00,
2013-02-06 08:01:00,53.0,53.0,30.08,SE,132,0.0,2.0,100,99.99,,,-99.99,,2013-02-06 13:01:00,
2013-02-06 08:12:00,53.0,53.0,30.08,SE,132,0.0,2.0,100,99.99,,,-99.99,,2013-02-06 13:12:00,
2013-02-06 08:22:00,55.0,55.0,30.09,ESE,114,3.0,6.0,100,99.99,,,-99.99,,2013-02-06 13:22:00,
2013-02-06 08:32:00,58.0,58.0,30.10,ESE,121,1.0,4.0,100,99.99,,,-99.99,,2013-02-06 13:32:00,
2013-02-06 08:42:00,58.0,58.0,30.10,ESE,121,1.0,4.0,100,99.99,,,-99.99,,2013-02-06 13:42:00,
2013-02-06 08:52:00,60.0,59.0,30.09,ESE,110,4.0,6.0,96,99.99,,,-99.99,,2013-02-06 13:52:00,
2013-02-06 09:02:00,61.0,59.0,30.10,North,0,0.0,0.0,92,99.99,,,-99.99,,2013-02-06 14:02:00,
2013-02-06 09:11:00,63.0,60.0,30.10,South,177,0.0,1.0,89,99.99,,,-99.99,,2013-02-06 14:11:00,
2013-02-06 09:22:00,63.0,60.0,30.10,South,177,0.0,1.0,89,99.99,,,-99.99,,2013-02-06 14:22:00,
2013-02-06 09:32:00,64.0,60.0,30.11,North,0,0.0,0.0,86,99.99,,,-99.99,,2013-02-06 14:32:00,
2013-02-06 09:42:00,67.0,61.0,30.12,North,0,0.0,0.0,80,99.99,,,-99.99,,2013-02-06 14:42:00,
2013-02-06 09:52:00,67.0,61.0,30.12,North,0,0.0,0.0,80,99.99,,,-99.99,,2013-02-06 14:52:00,
2013-02-06 10:02:00,70.0,61.0,30.12,SW,225,1.0,4.0,73,99.99,,,-99.99,,2013-02-06 15:02:00,
2013-02-06 10:11:00,72.0,61.0,30.12,North,0,0.0,0.0,68,99.99,,,-99.99,,2013-02-06 15:11:00,
2013-02-06 10:21:00,72.0,61.0,30.12,North,0,0.0,0.0,68,99.99,,,-99.99,,2013-02-06 15:21:00,
2013-02-06 10:31:00,73.0,61.0,30.13,North,0,0.0,0.0,66,99.99,,,-99.99,,2013-02-06 15:31:00,
2013-02-06 10:42:00,74.0,60.0,30.12,SW,221,1.0,4.0,62,99.99,,,-99.99,,2013-02-06 15:42:00,
2013-02-06 10:52:00,74.0,60.0,30.12,SW,221,1.0,4.0,62,99.99,,,-99.99,,2013-02-06 15:52:00,
2013-02-06 11:01:00,75.0,60.0,30.12,SW,215,2.0,6.0,59,99.99,,,-99.99,,2013-02-06 16:01:00,
2013-02-06 11:11:00,75.0,60.0,30.12,SW,215,2.0,6.0,59,99.99,,,-99.99,,2013-02-06 16:11:00,
2013-02-06 11:21:00,77.0,60.0,30.12,SSW,203,3.0,5.0,55,99.99,,,-99.99,,2013-02-06 16:21:00,
2013-02-06 11:32:00,77.0,58.0,30.11,SW,225,1.0,6.0,52,99.99,,,-99.99,,2013-02-06 16:32:00,
2013-02-06 11:42:00,77.0,58.0,30.11,SW,225,1.0,6.0,52,99.99,,,-99.99,,2013-02-06 16:42:00,
2013-02-06 11:52:00,78.0,57.0,30.11,SW,231,3.0,7.0,48,99.99,,,-99.99,,2013-02-06 16:52:00,
2013-02-06 12:02:00,78.0,57.0,30.11,South,172,1.0,3.0,49,99.99,,,-99.99,,2013-02-06 17:02:00,
2013-02-06 12:11:00,78.0,57.0,30.10,SE,128,1.0,5.0,49,99.99,,,-99.99,,2013-02-06 17:11:00,
2013-02-06 12:22:00,78.0,57.0,30.10,SE,128,1.0,5.0,49,99.99,,,-99.99,,2013-02-06 17:22:00,
2013-02-06 12:32:00,78.0,57.0,30.09,SE,134,2.0,6.0,49,99.99,,,-99.99,,2013-02-06 17:32:00,
2013-02-06 12:42:00,79.0,57.0,30.09,SSW,208,0.0,1.0,47,99.99,,,-99.99,,2013-02-06 17:42:00,
2013-02-06 12:52:00,79.0,57.0,30.09,SSW,208,0.0,1.0,47,99.99,,,-99.99,,2013-02-06 17:52:00,
2013-02-06 13:01:00,79.0,58.0,30.08,ESE,108,3.0,6.0,48,99.99,,,-99.99,,2013-02-06 18:01:00,
2013-02-06 13:11:00,79.0,58.0,30.08,SSW,193,2.0,5.0,48,99.99,,,-99.99,,2013-02-06 18:11:00,
2013-02-06 13:23:00,79.0,58.0,30.08,SSW,193,2.0,5.0,48,99.99,,,-99.99,,2013-02-06 18:23:00,
2013-02-06 13:32:00,78.0,57.0,30.07,ESE,111,4.0,6.0,48,99.99,,,-99.99,,2013-02-06 18:32:00,
2013-02-06 13:42:00,78.0,57.0,30.07,ESE,111,4.0,6.0,48,99.99,,,-99.99,,2013-02-06 18:42:00,
2013-02-06 13:52:00,78.0,57.0,30.07,NE,55,1.0,4.0,49,99.99,,,-99.99,,2013-02-06 18:52:00,
2013-02-06 14:01:00,80.0,59.0,30.06,SSW,195,3.0,5.0,48,99.99,,,-99.99,,2013-02-06 19:01:00,
2013-02-06 14:11:00,80.0,59.0,30.06,SSW,195,3.0,5.0,48,99.99,,,-99.99,,2013-02-06 19:11:00,
2013-02-06 14:21:00,79.0,57.0,30.05,NNE,25,1.0,4.0,47,99.99,,,-99.99,,2013-02-06 19:21:00,
2013-02-06 14:32:00,78.0,59.0,30.05,North,353,2.0,8.0,52,99.99,,,-99.99,,2013-02-06 19:32:00,
2013-02-06 14:42:00,78.0,59.0,30.05,North,353,2.0,8.0,52,99.99,,,-99.99,,2013-02-06 19:42:00,
2013-02-06 14:52:00,77.0,58.0,30.05,North,353,6.0,11.0,52,99.99,,,-99.99,,2013-02-06 19:52:00,
2013-02-06 15:01:00,78.0,59.0,30.05,NNE,13,4.0,7.0,52,99.99,,,-99.99,,2013-02-06 20:01:00,
2013-02-06 15:11:00,78.0,59.0,30.05,North,10,2.0,6.0,53,99.99,,,-99.99,,2013-02-06 20:11:00,
2013-02-06 15:21:00,78.0,59.0,30.05,North,10,2.0,6.0,53,99.99,,,-99.99,,2013-02-06 20:21:00,
2013-02-06 15:32:00,78.0,58.0,30.05,NE,52,4.0,8.0,50,99.99,,,-99.99,,2013-02-06 20:32:00,
2013-02-06 15:42:00,78.0,58.0,30.05,NE,52,4.0,8.0,50,99.99,,,-99.99,,2013-02-06 20:42:00,
2013-02-06 15:52:00,78.0,58.0,30.04,NE,56,5.0,8.0,51,99.99,,,-99.99,,2013-02-06 20:52:00,
2013-02-06 16:02:00,78.0,59.0,30.04,NNE,14,2.0,5.0,53,99.99,,,-99.99,,2013-02-06 21:02:00,
2013-02-06 16:11:00,78.0,59.0,30.04,NNE,14,2.0,5.0,53,99.99,,,-99.99,,2013-02-06 21:11:00,
2013-02-06 16:21:00,78.0,59.0,30.05,North,7,4.0,6.0,53,99.99,,,-99.99,,2013-02-06 21:21:00,
2013-02-06 16:32:00,77.0,59.0,30.05,NE,56,3.0,5.0,54,99.99,,,-99.99,,2013-02-06 21:32:00,
2013-02-06 16:42:00,77.0,59.0,30.05,NE,56,3.0,5.0,54,99.99,,,-99.99,,2013-02-06 21:42:00,
2013-02-06 16:52:00,76.0,59.0,30.05,NNE,13,1.0,2.0,56,99.99,,,-99.99,,2013-02-06 21:52:00,
2013-02-06 17:01:00,76.0,60.0,30.05,NE,48,2.0,3.0,57,99.99,,,-99.99,,2013-02-06 22:01:00,
2013-02-06 17:11:00,76.0,60.0,30.05,NE,48,2.0,3.0,57,99.99,,,-99.99,,2013-02-06 22:11:00,
2013-02-06 17:21:00,76.0,60.0,30.05,NNE,20,0.0,2.0,58,99.99,,,-99.99,,2013-02-06 22:21:00,
2013-02-06 17:31:00,75.0,60.0,30.05,North,0,0.0,0.0,59,99.99,,,-99.99,,2013-02-06 22:31:00,
2013-02-06 17:42:00,75.0,60.0,30.05,North,0,0.0,0.0,59,99.99,,,-99.99,,2013-02-06 22:42:00,
2013-02-06 17:52:00,75.0,59.0,30.05,East,97,2.0,4.0,58,99.99,,,-99.99,,2013-02-06 22:52:00,
2013-02-06 18:01:00,75.0,60.0,30.04,ESE,110,6.0,14.0,59,99.99,,,-99.99,,2013-02-06 23:01:00,
2013-02-06 18:11:00,75.0,60.0,30.04,ESE,110,6.0,14.0,59,99.99,,,-99.99,,2013-02-06 23:11:00,
2013-02-06 18:21:00,74.0,61.0,30.05,East,90,4.0,11.0,63,99.99,,,-99.99,,2013-02-06 23:21:00,
2013-02-06 18:32:00,73.0,61.0,30.05,ESE,108,5.0,9.0,67,99.99,,,-99.99,,2013-02-06 23:32:00,
2013-02-06 18:42:00,73.0,61.0,30.05,ESE,108,5.0,9.0,67,99.99,,,-99.99,,2013-02-06 23:42:00,
2013-02-06 18:52:00,72.0,61.0,30.05,East,101,4.0,8.0,69,99.99,,,-99.99,,2013-02-06 23:52:00,
2013-02-06 19:01:00,72.0,62.0,30.06,East,100,4.0,7.0,71,99.99,,,-99.99,,2013-02-07 00:01:00,
2013-02-06 19:11:00,72.0,62.0,30.06,East,100,4.0,7.0,71,99.99,,,-99.99,,2013-02-07 00:11:00,
2013-02-06 19:21:00,72.0,62.0,30.06,ESE,114,6.0,13.0,71,99.99,,,-99.99,,2013-02-07 00:21:00,
2013-02-06 19:32:00,71.0,61.0,30.06,ESE,108,5.0,10.0,71,99.99,,,-99.99,,2013-02-07 00:32:00,
2013-02-06 19:42:00,71.0,61.0,30.06,East,97,6.0,10.0,71,99.99,,,-99.99,,2013-02-07 00:42:00,
2013-02-06 19:52:00,71.0,61.0,30.06,East,97,6.0,10.0,71,99.99,,,-99.99,,2013-02-07 00:52:00,
2013-02-06 20:01:00,71.0,62.0,30.07,ESE,117,6.0,11.0,72,99.99,,,-99.99,,2013-02-07 01:01:00,
2013-02-06 20:11:00,71.0,62.0,30.07,ESE,117,6.0,11.0,72,99.99,,,-99.99,,2013-02-07 01:11:00,
2013-02-06 20:21:00,70.0,61.0,30.07,ESE,110,6.0,10.0,73,99.99,,,-99.99,,2013-02-07 01:21:00,
2013-02-06 20:32:00,70.0,62.0,30.08,ESE,115,6.0,10.0,76,99.99,,,-99.99,,2013-02-07 01:32:00,
2013-02-06 20:42:00,70.0,62.0,30.08,ESE,115,6.0,10.0,76,99.99,,,-99.99,,2013-02-07 01:42:00,
2013-02-06 20:52:00,69.0,62.0,30.08,East,98,5.0,10.0,78,99.99,,,-99.99,,2013-02-07 01:52:00,
2013-02-06 21:01:00,69.0,63.0,30.08,ESE,113,5.0,9.0,80,99.99,,,-99.99,,2013-02-07 02:01:00,
2013-02-06 21:11:00,69.0,63.0,30.08,ESE,113,5.0,9.0,80,99.99,,,-99.99,,2013-02-07 02:11:00,
2013-02-06 21:21:00,68.0,62.0,30.09,ESE,118,4.0,8.0,81,99.99,,,-99.99,,2013-02-07 02:21:00,
2013-02-06 21:32:00,68.0,62.0,30.09,ESE,107,4.0,8.0,81,99.99,,,-99.99,,2013-02-07 02:32:00,
2013-02-06 21:41:00,68.0,62.0,30.09,ESE,107,4.0,8.0,81,99.99,,,-99.99,,2013-02-07 02:41:00,
2013-02-06 21:52:00,68.0,62.0,30.09,ESE,107,4.0,8.0,81,99.99,,,-99.99,,2013-02-07 02:52:00,
2013-02-06 22:02:00,67.0,62.0,30.09,SE,139,3.0,6.0,84,99.99,,,-99.99,,2013-02-07 03:02:00,
2013-02-06 22:11:00,67.0,62.0,30.09,ESE,115,3.0,6.0,85,99.99,,,-99.99,,2013-02-07 03:11:00,
2013-02-06 22:21:00,67.0,62.0,30.09,ESE,115,3.0,6.0,85,99.99,,,-99.99,,2013-02-07 03:21:00,
2013-02-06 22:31:00,66.0,62.0,30.09,SE,128,2.0,4.0,87,99.99,,,-99.99,,2013-02-07 03:31:00,
2013-02-06 22:42:00,66.0,62.0,30.09,SE,128,2.0,4.0,87,99.99,,,-99.99,,2013-02-07 03:42:00,
2013-02-06 22:52:00,66.0,62.0,30.09,ESE,122,2.0,4.0,88,99.99,,,-99.99,,2013-02-07 03:52:00,
2013-02-06 23:01:00,66.0,62.0,30.09,SSE,158,0.0,3.0,88,99.99,,,-99.99,,2013-02-07 04:01:00,
2013-02-06 23:11:00,66.0,62.0,30.09,SSE,158,0.0,3.0,88,99.99,,,-99.99,,2013-02-07 04:11:00,
2013-02-06 23:22:00,65.0,62.0,30.09,SSE,152,1.0,3.0,90,99.99,,,-99.99,,2013-02-07 04:22:00,
2013-02-06 23:32:00,65.0,62.0,30.09,SSE,155,3.0,5.0,91,99.99,,,-99.99,,2013-02-07 04:32:00,
2013-02-06 23:42:00,65.0,62.0,30.09,SSE,155,3.0,5.0,91,99.99,,,-99.99,,2013-02-07 04:42:00,
2013-02-06 23:53:00,64.0,62.0,30.09,SE,146,2.0,4.0,93,99.99,,,-99.99,,2013-02-07 04:53:00,